Change the Weather History Date:

Saturday, March 16, 2013

  Actual Average Record
Temperature  
Mean Temperature 48 °F 39 °F  
Max Temperature 63 °F 55 °F 71 °F (2011)
Min Temperature 32 °F 24 °F 10 °F (2005)
Degree Days  
Heating Degree Days 17 26  
Month to date heating degree days 374 444  
Since 1 July heating degree days 5240 5174  
Cooling Degree Days 0 0  
Month to date cooling degree days 0 0  
Year to date cooling degree days 0 0  
Moisture  
Dew Point 27 °F    
Average Humidity 47    
Maximum Humidity 70    
Minimum Humidity 24    
Precipitation  
Precipitation 0.00 in 0.03 in 0.46 in (2003)
Month to date precipitation 0.30 0.67  
Year to date precipitation 2.51 2.56  
Snow  
Snow 0.00 in - - ()
Month to date snowfall 0.0  
Snow Depth 0.00 in    
Sea Level Pressure  
Sea Level Pressure 29.84 in    
Wind  
Wind Speed 6 mph (NE)    
Max Wind Speed 18 mph    
Max Gust Speed 28 mph    
Visibility 10 miles    
Events      
T = Trace of Precipitation, MM = Missing Value Source: NWS Daily Summary

Daily Weather History Graph

Daily Weather History Graph

Search for Another Location

Airport or City:

Trip Planner

Search our weather history database for the weather conditions in past years. The results will help you decide how hot, cold, wet, or windy it might be!

Date:

Astronomy

Mar. 16, 2013 Rise Set
Actual Time 7:23 AM MDT 7:23 PM MDT
Civil Twilight 6:57 AM MDT 7:49 PM MDT
Nautical Twilight 6:27 AM MDT 8:19 PM MDT
Astronomical Twilight 5:56 AM MDT 8:50 PM MDT
Moon 10:02 AM MDT (3/16) No Moon Set
Length of Visible Light 12h 51m
Length of Day
11h 59m
Waxing Crescent, 23% of the Moon is Illuminated
Mar 16
Waxing Crescent
Mar 19
First Quarter
Mar 27
Full
Apr 2
Last Quarter
Apr 10
New

Hourly Weather History & Observations

Time (MDT) Temp. Windchill Dew Point Humidity Pressure Visibility Wind Dir Wind Speed Gust Speed Precip Events Conditions
12:53 AM 39.0 °F 34.8 °F 25.0 °F 57% 29.89 in 10.0 mi East 5.8 mph - N/A   Clear
1:53 AM 37.0 °F 32.4 °F 24.1 °F 59% 29.86 in 10.0 mi NE 5.8 mph - N/A   Clear
2:53 AM 37.0 °F - 25.0 °F 62% 29.86 in 10.0 mi Calm Calm - N/A   Clear
3:53 AM 35.1 °F 32.2 °F 24.1 °F 64% 29.86 in 10.0 mi ENE 3.5 mph - N/A   Clear
4:53 AM 34.0 °F 31.0 °F 25.0 °F 70% 29.83 in 10.0 mi ENE 3.5 mph - N/A   Clear
5:53 AM 33.1 °F - 24.1 °F 70% 29.84 in 10.0 mi Calm Calm - N/A   Clear
6:53 AM 35.1 °F 30.1 °F 26.1 °F 70% 29.84 in 10.0 mi ENE 5.8 mph - N/A   Clear
7:53 AM 37.0 °F 34.5 °F 26.1 °F 65% 29.86 in 10.0 mi East 3.5 mph - N/A   Clear
8:53 AM 39.9 °F - 28.9 °F 65% 29.89 in 10.0 mi Calm Calm - N/A   Clear
9:53 AM 48.0 °F - 28.9 °F 48% 29.88 in 10.0 mi East 4.6 mph - N/A   Partly Cloudy
10:53 AM 57.0 °F - 27.0 °F 32% 29.86 in 10.0 mi East 3.5 mph - N/A   Clear
11:53 AM 61.0 °F - 27.0 °F 27% 29.86 in 10.0 mi North 13.8 mph 19.6 mph N/A   Mostly Cloudy
12:53 PM 62.1 °F - 30.9 °F 31% 29.84 in 10.0 mi North 17.3 mph 23.0 mph N/A   Scattered Clouds
1:53 PM 61.0 °F - 33.1 °F 35% 29.84 in 10.0 mi North 13.8 mph 26.5 mph N/A   Mostly Cloudy
2:53 PM 57.9 °F - 28.0 °F 32% 29.82 in 10.0 mi NW 6.9 mph - N/A   Partly Cloudy
3:53 PM 59.0 °F - 30.0 °F 33% 29.81 in 10.0 mi NNW 17.3 mph 23.0 mph N/A   Scattered Clouds
4:53 PM 60.1 °F - 27.0 °F 28% 29.80 in 10.0 mi North 10.4 mph - N/A   Scattered Clouds
5:53 PM 59.0 °F - 23.0 °F 25% 29.79 in 10.0 mi WNW 9.2 mph - N/A   Partly Cloudy
6:53 PM 57.9 °F - 23.0 °F 26% 29.79 in 10.0 mi NW 5.8 mph - N/A   Mostly Cloudy
7:53 PM 52.0 °F - 27.0 °F 38% 29.82 in 10.0 mi NE 6.9 mph - N/A   Mostly Cloudy
8:53 PM 45.0 °F - 28.0 °F 52% 29.83 in 10.0 mi Calm Calm - N/A   Clear
9:53 PM 39.9 °F - 26.1 °F 58% 29.84 in 10.0 mi Calm Calm - N/A   Clear
10:53 PM 37.0 °F 31.0 °F 27.0 °F 67% 29.82 in 10.0 mi ENE 8.1 mph - N/A   Partly Cloudy
11:53 PM 35.1 °F 31.0 °F 26.1 °F 70% 29.82 in 10.0 mi East 4.6 mph - N/A   Partly Cloudy